#timestamp,LO_Frequency,Hit 
1498057215.4,286047071.9,N
1498057235.2,286047082.2,N
1498057255.1,286047147.4,N
1498057256.0,286047147.4,N
1498057275.8,286047179.4,N
1498057295.6,286047229.8,N
1498057315.5,286047242.7,N
1498057335.3,286047180.4,N
1498057355.1,286047167.0,N
1498057375.9,286047153.9,N
1498057395.7,286047135.1,N
1498057415.5,286047174.3,N
1498057435.4,286047186.1,N
1498057455.2,286047166.0,N
1498057475.0,286047137.4,N
1498057475.9,286047137.4,N
1498057495.7,286047121.9,N
1498057515.6,286047123.7,N
1498057535.4,286047112.1,N
1498057555.2,286047122.5,N
1498057575.1,286047128.4,N
1498057576.0,286047128.4,N
1498057595.8,286047098.6,N
1498057615.6,286047086.5,N
1498057635.5,286047097.2,N
1498057655.3,286047077.3,N
1498057675.1,286047041.6,N
1498057695.9,286047017.5,N
1498057715.7,286047012.0,N
1498057735.5,286047060.9,N
1498057755.3,286047062.1,N
1498057775.2,286047106.1,N
1498057795.0,286047130.2,N
1498057795.9,286047130.2,N
1498057815.7,286047162.5,N
1498057835.6,286047170.0,N
1498057855.4,286047147.1,N
1498057875.2,286047180.4,N
1498057895.1,286047198.6,N
1498057896.0,286047198.6,N
1498057915.8,286047144.3,N
1498057935.6,286047103.3,N
1498057955.5,286047112.5,N
1498057975.3,286047115.1,N
1498057995.1,286047101.5,N
1498058015.8,286047081.2,N
1498058035.7,286047053.2,N
1498058055.5,286047041.1,N
1498058075.3,286047040.8,N
1498058095.2,286047039.3,N
1498058115.9,286047054.4,N
1498058135.7,286047084.5,N
1498058155.6,286047117.0,N
1498058175.4,286047078.0,N
1498058195.2,286047060.2,N
1498058215.0,286047041.9,N
1498058216.0,286047041.9,N
1498058235.8,286047041.6,N
1498058255.6,286047042.3,N
1498058275.4,286047043.0,N
1498058295.3,286047047.0,N
1498058315.1,286047056.8,N
1498058335.8,286047064.5,N
1498058355.7,286047056.3,N
1498058375.5,286047058.4,N
1498058395.3,286047057.7,N
1498058415.2,286047072.9,N
1498058435.9,286047060.0,N
1498058455.7,286047036.6,N
1498058475.6,286047011.7,N
1498058495.4,286046991.1,N
1498058515.2,286046984.4,N
1498058535.0,286046993.0,N
1498058535.9,286046993.0,N
1498058555.8,286047001.4,N
1498058575.6,286047020.0,N
1498058595.4,286047015.5,N
1498058615.3,286047010.8,N
1498058635.1,286047027.0,N
1498058636.0,286047027.0,N
1498058655.8,286047021.9,N
1498058675.7,286047052.7,N
1498058695.5,286047039.6,N
1498058715.3,286047043.5,N
1498058735.2,286047032.0,N
1498058755.9,286047036.4,N
1498058775.7,286047037.6,N
1498058795.5,286047025.0,N
1498058815.4,286047042.4,N
1498058835.2,286047065.7,N
1498058855.0,286047116.9,N
1498058855.9,286047116.9,N
1498058875.8,286047143.7,N
1498058895.6,286047154.7,N
1498058915.4,286047181.6,N
1498058935.3,286047207.0,N
1498058955.1,286047183.4,N
1498058956.0,286047183.4,N
1498058975.8,286047146.3,N
1498058995.7,286047132.4,N
1498059015.5,286047149.8,N
1498059035.3,286047165.2,N
1498059055.1,286047181.2,N
1498059075.9,286047203.0,N
1498059095.7,286047180.5,N
1498059115.5,286047167.9,N
1498059135.4,286047196.5,N
1498059155.2,286047198.2,N
1498059175.0,286047202.1,N
1498059175.9,286047202.1,N
1498059195.8,286047222.3,N
1498059215.6,286047236.1,N
1498059235.4,286047239.6,N
1498059255.3,286047233.3,N
1498059275.1,286047236.4,N
1498059276.0,286047236.4,N
1498059295.8,286047223.1,N
1498059315.6,286047197.4,N
1498059335.5,286047211.7,N
1498059355.3,286047181.0,N
1498059375.1,286047221.9,N
1498059395.9,286047219.9,N
1498059415.7,286047217.9,N
1498059435.5,286047224.5,N
1498059455.4,286047205.5,N
1498059475.2,286047206.1,N
1498059495.0,286047236.6,N
1498059495.9,286047236.6,N
1498059515.8,286047211.2,N
1498059535.6,286047206.7,N
1498059555.4,286047198.5,N
1498059575.2,286047189.4,N
1498059595.1,286047168.3,N
1498059596.0,286047168.3,N
1498059615.8,286047165.8,N
1498059635.6,286047154.4,N
1498059655.5,286047148.6,N
1498059675.3,286047157.8,N
1498059695.1,286047193.6,N
1498059715.9,286047178.9,N
1498059735.7,286047201.2,N
1498059755.5,286047214.3,N
1498059775.4,286047213.9,N
1498059795.2,286047212.7,N
1498059815.0,286047228.1,N
1498059815.9,286047228.1,N
1498059835.8,286047210.5,N
1498059855.6,286047188.8,N
1498059875.4,286047214.3,N
1498059895.2,286047217.2,N
1498059915.1,286047201.8,N
1498059916.0,286047201.8,N
1498059935.8,286047171.0,N
1498059955.6,286047180.0,N
1498059975.5,286047169.7,N
1498059995.3,286047157.6,N
1498060015.1,286047133.5,N
1498060035.9,286047113.4,N
1498060055.7,286047096.4,N
1498060075.5,286047080.9,N
1498060095.4,286047072.4,N
1498060115.2,286047058.2,N
1498060135.0,286047040.0,N
1498060135.9,286047040.0,N
1498060155.7,286047026.1,N
1498060175.6,286047011.0,N
1498060195.4,286047000.9,N
1498060215.2,286046983.7,N
1498060235.1,286046972.2,N
1498060236.0,286046972.2,N
1498060255.8,286046961.9,N
1498060275.6,286046952.2,N
1498060295.5,286046944.0,N
1498060315.3,286046936.8,N
1498060335.1,286046928.3,N
1498060355.9,286046920.2,N
1498060375.7,286046914.3,N
1498060395.5,286046906.3,N
1498060415.3,286046897.6,N
1498060435.2,286046891.1,N
1498060455.0,286046885.6,N
1498060455.9,286046885.6,N
1498060475.7,286046879.1,N
1498060495.6,286046870.3,N
1498060515.4,286046864.6,N
1498060535.2,286046857.6,N
1498060555.1,286046853.6,N
1498060556.0,286046853.6,N
1498060575.8,286046849.2,N
1498060595.6,286046841.8,N
1498060615.5,286046838.0,N
1498060635.3,286046830.2,N
1498060655.1,286046826.2,N
1498060675.8,286046819.6,N
1498060695.7,286046814.6,N
1498060715.5,286046809.9,N
1498060735.3,286046805.4,N
1498060755.2,286046800.1,N
1498060775.9,286046795.3,N
1498060795.7,286046792.4,N
